Tracking 21473 objects as of 27-Sep-2020
HD Live streaming from Space Station
objects crossing your sky now

STARLINK-1446

Track STARLINK-1446 now!
10-day predictions
STARLINK-1446 is classified as:


NORAD ID: 45663
Int'l Code: 2020-035G
Perigee: 556.0 km
Apogee: 557.7 km
Inclination: 53.0 °
Period: 95.6 minutes
Semi major axis: 6927 km
RCS: Unknown
Launch date: June 4, 2020
Source: United States (US)
Launch site: AIR FORCE EASTERN TEST RANGE (AFETR)
aabbcc
Your satellite tracking list
Your tracking list is empty




NASA's NSSDC Master Catalog

Two Line Element Set (TLE):
1 45663U 20035G   20271.58337963 +.00007712 +00000-0 +54772-3 0  9995
2 45663 052.9976 356.0744 0001260 101.3016 262.7574 15.05590358001762
Source of the keplerian elements: AFSPC